EDT,Max TemperatureF,Mean TemperatureF,Min TemperatureF,Max Dew PointF,MeanDew PointF,Min DewpointF,Max Humidity, Mean Humidity, Min Humidity, Max Sea Level PressureIn, Mean Sea Level PressureIn, Min Sea Level PressureIn, Max VisibilityMiles, Mean VisibilityMiles, Min VisibilityMiles, Max Wind SpeedMPH, Mean Wind SpeedMPH, Max Gust SpeedMPH,PrecipitationIn, CloudCover, Events, WindDirDegrees
2012-6-1,82,78,73,76,73,70,87,81,74,29.99,29.95,29.89,10,8,2,32,12,39,0.97,6,Rain-Thunderstorm,194
2012-6-2,84,81,78,75,74,72,85,78,70,30.02,29.97,29.91,10,10,10,18,8,24,0.00,3,,253
2012-6-3,87,82,77,76,75,74,91,81,70,30.07,30.03,29.99,10,10,10,7,3,12,T,4,,313
2012-6-4,86,82,77,77,75,73,91,78,65,30.02,29.97,29.94,10,10,10,12,4,25,0.00,1,,239
2012-6-5,86,84,82,77,75,72,80,73,65,29.93,29.90,29.87,10,10,10,14,8,18,0.00,0,,195
2012-6-6,85,84,82,79,75,73,88,79,70,29.97,29.93,29.89,10,10,10,17,12,21,0.00,1,,162
2012-6-7,86,84,82,77,75,72,85,77,69,30.00,29.96,29.92,10,10,10,17,9,23,0.00,1,,153
2012-6-8,89,84,79,78,76,72,88,74,59,30.00,29.95,29.91,10,10,7,21,7,25,0.12,3,Rain-Thunderstorm,144
2012-6-9,88,84,79,78,75,71,85,77,69,30.02,29.98,29.94,10,10,10,18,11,23,T,2,Thunderstorm,125
2012-6-10,89,86,83,79,77,75,88,78,68,30.09,30.03,29.99,10,10,10,18,13,23,0.00,1,,112
2012-6-11,88,85,82,77,73,69,79,71,63,30.09,30.06,30.03,10,10,10,20,12,25,0.00,2,,92
2012-6-12,87,83,79,70,69,67,71,63,55,30.06,30.02,29.97,10,10,10,15,9,20,0.00,1,,79
2012-6-13,89,83,77,75,72,68,79,69,59,30.01,29.97,29.94,10,10,10,13,4,20,0.00,3,,5
2012-6-14,89,84,79,75,73,71,85,72,59,30.03,29.99,29.94,10,10,10,10,4,15,0.00,0,,327
2012-6-15,89,84,79,75,73,71,85,74,63,30.02,29.99,29.95,10,10,10,12,5,15,0.00,2,,318
2012-6-16,88,81,74,75,72,67,79,69,59,30.02,29.98,29.93,10,10,2,29,8,37,0.38,4,Rain,94
2012-6-17,86,80,73,73,69,66,88,70,51,30.01,29.96,29.91,10,10,10,20,11,25,0.10,3,Rain,76
2012-6-18,86,82,78,71,68,65,71,64,57,29.99,29.95,29.91,10,10,10,25,13,33,0.00,1,,79
2012-6-19,81,78,74,75,73,70,97,86,74,30.02,29.97,29.91,10,6,0,23,12,36,3.23,6,Fog-Rain,79
2012-6-20,83,79,75,75,73,71,85,77,69,29.96,29.93,29.88,10,9,2,26,18,36,1.08,7,Rain,144
2012-6-21,82,79,75,75,74,72,94,87,79,29.95,29.91,29.87,10,8,2,24,13,30,0.99,7,Rain,143
2012-6-22,80,77,73,77,74,71,97,88,79,29.93,29.87,29.83,10,9,2,29,13,35,1.00,6,Rain,161
2012-6-23,83,80,76,79,76,72,94,87,79,29.95,29.90,29.85,10,10,8,28,17,39,T,4,Rain,140
2012-6-24,85,81,77,79,77,73,94,87,79,29.96,29.91,29.83,10,9,0,38,19,45,0.01,4,Fog-Rain,176
2012-6-25,83,82,80,76,75,73,85,80,74,29.87,29.83,29.79,10,10,10,28,19,36,0.00,1,,193
2012-6-26,85,83,80,78,75,73,94,84,74,29.85,29.80,29.75,10,10,10,28,18,35,0.00,2,,212
2012-6-27,86,84,81,78,77,76,94,84,74,30.03,29.94,29.84,10,10,10,21,12,25,0.00,1,,239
2012-6-28,88,84,80,77,75,73,91,77,63,30.09,30.06,30.01,10,10,10,12,4,14,0.00,4,,219
2012-6-29,86,81,75,77,75,70,91,78,65,30.08,30.03,29.99,10,10,2,13,2,17,0.43,4,Rain,273
2012-6-30,86,82,77,77,75,72,97,83,69,30.04,30.01,29.97,10,10,5,16,3,23,0.22,3,Rain-Thunderstorm,99